FW7875 Weather Reports


Display with metric or nautical units.
time (UTC)temp
F
wind
direction
speed
MPH
gust
MPH
rain 1hr
in
rain 24hr
in
rain mn
in
humidity
%
barometer
mb
20260901152018 62 113 6.0 10.0 0.00 0.09 0.00 71 1025.5
20260901151535 61 113 7.0 10.0 0.00 0.09 0.00 72 1025.4
20260901151018 61 109 7.0 10.0 0.00 0.09 0.00 72 1025.5
20260901150522 60 114 8.0 10.0 0.00 0.09 0.00 72 1025.4
20260901150040 59 104 8.0 12.0 0.00 0.09 0.00 72 1025.6
20260901145520 59 127 9.0 12.0 0.00 0.09 0.00 74 1025.6
20260901145022 58 115 10.0 13.0 0.00 0.09 0.00 73 1025.6
20260901144538 58 109 9.0 13.0 0.00 0.09 0.00 77 1025.6
20260901144019 57 94 10.0 13.0 0.00 0.09 0.00 78 1025.6
20260901143519 57 122 10.0 12.0 0.00 0.09 0.00 77 1025.7
20260901143049 56 101 10.0 12.0 0.00 0.09 0.00 79 1025.8
20260901142518 56 111 10.0 13.0 0.00 0.09 0.00 79 1025.9
20260901142023 55 126 8.0 13.0 0.00 0.09 0.00 82 1025.8
20260901141542 55 113 9.0 13.0 0.00 0.09 0.00 81 1025.8
20260901141024 54 121 9.0 13.0 0.00 0.09 0.00 83 1025.8
20260901140518 54 110 10.0 13.0 0.00 0.09 0.00 82 1025.9
20260901140041 53 109 10.0 13.0 0.00 0.09 0.00 85 1025.7
20260901135520 53 105 8.0 12.0 0.00 0.09 0.00 86 1025.9
20260901135020 52 105 8.0 11.0 0.00 0.09 0.00 85 1025.9
20260901134539 52 106 8.0 11.0 0.00 0.09 0.00 86 1025.9
20260901134020 51 122 9.0 11.0 0.00 0.09 0.00 87 1025.9
20260901133519 51 110 6.0 9.0 0.00 0.09 0.00 89 1025.9
20260901133037 50 123 7.0 10.0 0.00 0.09 0.00 90 1025.8
20260901132521 49 109 7.0 10.0 0.00 0.09 0.00 91 1025.6
20260901132020 48 129 3.0 6.0 0.00 0.09 0.00 92 1025.6
20260901131541 47 117 4.0 6.0 0.00 0.09 0.00 93 1025.6
20260901131020 47 124 3.0 6.0 0.00 0.09 0.00 92 1025.6
20260901130521 46 122 4.0 6.0 0.00 0.09 0.00 92 1025.5
20260901130040 46 137 5.0 7.0 0.00 0.09 0.00 92 1025.4
20260901125517 46 117 5.0 7.0 0.00 0.09 0.00 92 1025.3
20260901125019 46 122 4.0 7.0 0.00 0.09 0.00 92 1025.4
20260901124539 46 112 5.0 6.0 0.00 0.09 0.00 92 1025.4
20260901124020 46 138 4.0 6.0 0.00 0.09 0.00 92 1025.3
20260901123518 46 124 4.0 6.0 0.00 0.09 0.00 93 1025.4
20260901123047 46 132 4.0 6.0 0.00 0.09 0.00 93 1025.2
20260901122518 46 139 3.0 5.0 0.00 0.09 0.00 93 1025.2
20260901122021 46 129 4.0 6.0 0.00 0.09 0.00 93 1025.2
20260901121542 46 126 4.0 6.0 0.00 0.09 0.00 93 1025.2
20260901121017 46 127 4.0 6.0 0.00 0.09 0.00 93 1025.2
20260901120520 46 138 3.0 6.0 0.00 0.09 0.00 92 1025.2
20260901120048 46 109 4.0 6.0 0.00 0.09 0.00 92 1025.2
20260901115517 46 146 3.0 5.0 0.00 0.09 0.00 92 1025.3
20260901115020 47 136 3.0 5.0 0.00 0.09 0.00 92 1025.2
20260901114541 47 121 3.0 5.0 0.00 0.09 0.00 92 1025.2
20260901114019 47 124 3.0 5.0 0.00 0.09 0.00 92 1025.1
20260901113520 47 129 4.0 5.0 0.00 0.09 0.00 92 1025.0
20260901113040 47 110 4.0 5.0 0.00 0.09 0.00 93 1025.0
20260901112519 47 114 3.0 5.0 0.00 0.09 0.00 92 1024.9
20260901112021 47 108 4.0 6.0 0.00 0.09 0.00 93 1025.0
20260901111537 47 126 4.0 6.0 0.00 0.09 0.00 93 1024.7
20260901111020 47 119 4.0 6.0 0.00 0.09 0.00 93 1024.7
20260901110517 48 115 4.0 5.0 0.00 0.09 0.00 92 1024.8
20260901110037 48 114 4.0 5.0 0.00 0.09 0.00 92 1024.6
20260901105518 48 110 3.0 5.0 0.00 0.09 0.00 92 1024.6
20260901105021 48 110 3.0 4.0 0.00 0.09 0.00 93 1024.6
20260901104542 48 103 3.0 5.0 0.00 0.09 0.00 92 1024.5
20260901104020 48 110 4.0 5.0 0.00 0.09 0.00 91 1024.6
20260901103518 48 112 3.0 5.0 0.00 0.09 0.00 91 1024.6
20260901103037 49 118 4.0 5.0 0.00 0.09 0.00 91 1024.5
20260901102518 49 150 3.0 5.0 0.00 0.09 0.00 91 1024.4
20260901102019 49 105 3.0 5.0 0.00 0.09 0.00 91 1024.5
20260901101537 50 98 2.0 6.0 0.00 0.09 0.00 91 1024.4
20260901101018 50 118 2.0 9.0 0.00 0.09 0.00 90 1024.4
20260901100519 50 119 5.0 9.0 0.00 0.09 0.00 90 1024.3
20260901100043 51 113 6.0 9.0 0.00 0.09 0.00 90 1024.4
20260901095517 51 111 4.0 9.0 0.00 0.09 0.00 89 1024.4
20260901095018 51 104 5.0 9.0 0.00 0.09 0.00 90 1024.6
20260901094535 50 106 5.0 9.0 0.00 0.09 0.00 90 1024.5
20260901094019 50 100 5.0 8.0 0.00 0.09 0.00 89 1024.6
20260901093521 50 91 4.0 6.0 0.00 0.09 0.00 90 1024.5
20260901093038 50 89 4.0 5.0 0.00 0.09 0.00 89 1024.7
20260901092516 51 89 3.0 4.0 0.00 0.09 0.00 88 1024.8
20260901092018 51 81 2.0 3.0 0.00 0.09 0.00 88 1024.8
20260901091536 51 98 2.0 3.0 0.00 0.09 0.00 88 1024.9
20260901091018 51 104 2.0 3.0 0.00 0.09 0.00 88 1024.8
20260901090520 51 96 3.0 3.0 0.00 0.09 0.00 89 1024.9
20260901090037 51 84 2.0 3.0 0.00 0.09 0.00 88 1025.0
20260901085517 51 94 1.0 4.0 0.00 0.09 0.00 89 1024.8
20260901085020 51 77 1.0 4.0 0.00 0.09 0.00 88 1024.7
20260901084537 51 80 3.0 6.0 0.00 0.09 0.00 88 1024.8
20260901084018 51 94 4.0 6.0 0.00 0.09 0.00 89 1024.9
20260901083517 51 101 4.0 6.0 0.00 0.09 0.00 89 1024.9
20260901083038 51 108 4.0 6.0 0.00 0.09 0.00 89 1024.9
20260901082518 51 121 4.0 6.0 0.00 0.09 0.00 88 1025.0
20260901082016 51 100 2.0 3.0 0.00 0.09 0.00 89 1024.9
20260901081537 51 105 2.0 4.0 0.00 0.09 0.00 90 1025.0
20260901081018 51 116 2.0 5.0 0.00 0.09 0.00 91 1025.0
20260901080520 51 123 3.0 6.0 0.00 0.09 0.00 90 1025.0
20260901080038 51 115 3.0 6.0 0.00 0.09 0.00 90 1025.0
20260901075519 52 108 3.0 4.0 0.00 0.09 0.00 90 1025.1
20260901075018 52 122 3.0 6.0 0.00 0.09 0.00 90 1025.2
20260901074536 52 115 3.0 6.0 0.00 0.09 0.00 91 1025.1
20260901074019 51 108 1.0 3.0 0.00 0.09 0.00 91 1025.2
20260901073519 51 116 0.0 3.0 0.00 0.09 0.00 91 1025.1
20260901073035 52 117 1.0 4.0 0.00 0.09 0.00 90 1025.1
20260901072519 52 122 3.0 5.0 0.00 0.09 0.00 90 1025.2
20260901072018 52 120 4.0 5.0 0.00 0.09 0.00 90 1025.2
20260901071537 52 109 3.0 6.0 0.00 0.09 0.00 91 1025.2
20260901071018 52 107 4.0 6.0 0.00 0.09 0.00 91 1025.0
20260901070520 52 98 5.0 6.0 0.00 0.09 0.00 91 1025.0
20260901070036 52 108 5.0 6.0 0.00 0.09 0.00 90 1025.1
20260901065520 52 100 3.0 5.0 0.00 0.09 0.00 90 1025.1
20260901065020 52 115 3.0 7.0 0.00 0.09 0.00 91 1025.0
20260901064539 52 102 3.0 7.0 0.00 0.09 0.00 90 1025.0
20260901064023 53 105 5.0 8.0 0.00 0.09 0.00 90 1025.0
20260901063522 53 83 6.0 8.0 0.00 0.09 0.00 91 1025.0
20260901063048 53 98 6.0 8.0 0.00 0.09 0.00 91 1024.8
20260901062521 53 117 6.0 8.0 0.00 0.09 0.00 91 1025.0
20260901062018 53 103 5.0 7.0 0.00 0.09 0.00 91 1025.2
20260901061547 53 98 5.0 7.0 0.00 0.09 0.00 92 1025.2
20260901061020 53 98 4.0 6.0 0.00 0.09 0.00 92 1025.1
20260901060521 53 98 5.0 6.0 0.00 0.09 0.00 92 1025.2
20260901060036 53 109 4.0 6.0 0.00 0.09 0.00 92 1025.3
20260901055520 53 103 3.0 6.0 0.00 0.09 0.09 91 1025.2
20260901055018 53 94 5.0 6.0 0.00 0.09 0.09 92 1025.3
20260901054541 53 88 4.0 5.0 0.00 0.09 0.09 93 1025.4
20260901054019 53 75 3.0 6.0 0.00 0.09 0.09 93 1025.3
20260901053523 53 77 3.0 6.0 0.00 0.09 0.09 92 1025.2
20260901053044 53 105 5.0 7.0 0.00 0.09 0.09 92 1025.0
20260901052521 54 104 5.0 8.0 0.00 0.09 0.09 92 1025.0
20260901052020 54 99 5.0 8.0 0.00 0.09 0.09 92 1025.2
20260901051541 54 113 6.0 9.0 0.00 0.09 0.09 92 1025.2
20260901051018 54 115 5.0 9.0 0.00 0.09 0.09 92 1025.0
20260901050520 54 105 5.0 7.0 0.00 0.09 0.09 92 1025.1
20260901050036 53 128 3.0 5.0 0.00 0.09 0.09 92 1024.9
20260901045524 53 98 4.0 5.0 0.00 0.09 0.09 91 1024.9
20260901045025 53 93 3.0 5.0 0.00 0.09 0.09 90 1024.8
20260901044539 53 92 4.0 5.0 0.00 0.09 0.09 90 1025.0
20260901044019 53 86 3.0 5.0 0.00 0.09 0.09 91 1025.0
20260901043516 53 106 3.0 5.0 0.00 0.09 0.09 91 1025.0
20260901043040 52 105 4.0 5.0 0.00 0.09 0.09 91 1025.1
20260901042518 52 102 4.0 5.0 0.00 0.09 0.09 91 1025.0
20260901042020 52 114 4.0 5.0 0.00 0.09 0.09 92 1025.0
20260901041536 52 85 2.0 3.0 0.00 0.09 0.09 92 1025.1
20260901041020 52 79 1.0 3.0 0.00 0.09 0.09 92 1025.0
20260901040522 52 102 2.0 3.0 0.00 0.09 0.09 92 1025.0
20260901040038 52 109 1.0 4.0 0.00 0.09 0.09 92 1025.3
20260901035518 52 136 1.0 4.0 0.00 0.09 0.09 92 1025.2
20260901035018 52 111 2.0 4.0 0.00 0.09 0.09 92 1025.2
20260901034538 53 111 3.0 4.0 0.00 0.09 0.09 91 1025.0
20260901034019 53 119 2.0 4.0 0.00 0.09 0.09 91 1025.0
20260901033520 53 106 1.0 3.0 0.00 0.09 0.09 90 1024.9
20260901033038 54 89 2.0 3.0 0.00 0.09 0.09 91 1024.8
20260901032517 54 82 1.0 2.0 0.00 0.09 0.09 91 1024.8
20260901032019 55 0 0.0 2.0 0.00 0.09 0.09 90 1024.8
20260901031538 55 136 1.0 2.0 0.00 0.09 0.09 90 1024.9
20260901031020 55 124 1.0 2.0 0.00 0.09 0.09 89 1024.7
20260901030517 56 117 1.0 2.0 0.00 0.09 0.09 86 1024.6
20260901030036 57 139 0.0 1.0 0.00 0.09 0.09 85 1024.6
20260901025522 58 0 0.0 0.0 0.00 0.09 0.09 84 1024.6
20260901025020 58 0 0.0 0.0 0.00 0.09 0.09 84 1024.4
20260901024539 57 0 0.0 0.0 0.00 0.09 0.09 85 1024.5
20260901024020 57 0 0.0 0.0 0.00 0.09 0.09 85 1024.5
20260901023521 57 0 0.0 0.0 0.00 0.09 0.09 85 1024.5
20260901023041 57 0 0.0 3.0 0.00 0.09 0.09 86 1024.5
20260901022521 57 0 0.0 3.0 0.00 0.09 0.09 86 1024.3
20260901022021 58 327 2.0 3.0 0.00 0.09 0.09 86 1024.2
20260901021543 58 349 1.0 3.0 0.00 0.09 0.09 85 1024.2
20260901021020 58 344 1.0 1.0 0.00 0.09 0.09 85 1024.2
20260901020520 58 314 0.0 3.0 0.00 0.09 0.09 86 1024.3
20260901020046 58 300 1.0 5.0 0.00 0.09 0.09 86 1024.4
20260901015517 58 279 3.0 5.0 0.00 0.09 0.09 86 1024.5
20260901015023 59 310 3.0 4.0 0.00 0.09 0.09 85 1024.4
20260901014537 60 214 0.0 1.0 0.00 0.09 0.09 85 1024.4
20260901014018 60 0 0.0 1.0 0.00 0.09 0.09 84 1024.5
20260901013518 61 212 0.0 2.0 0.00 0.09 0.09 85 1024.5
20260901013036 61 0 0.0 2.0 0.00 0.09 0.09 84 1024.5
20260901012517 61 226 0.0 1.0 0.00 0.09 0.09 83 1024.3
20260901012021 61 0 0.0 0.0 0.00 0.09 0.09 84 1024.5
20260901011534 61 0 0.0 0.0 0.00 0.09 0.09 83 1024.5
20260901011018 61 0 0.0 0.0 0.00 0.09 0.09 83 1024.5
20260901010523 61 0 0.0 1.0 0.00 0.09 0.09 83 1024.5
20260901010039 61 0 0.0 1.0 0.00 0.09 0.09 83 1024.6
20260901005521 61 56 0.0 0.0 0.00 0.09 0.09 83 1024.6
20260901005018 61 0 0.0 0.0 0.00 0.09 0.09 83 1024.6
20260901004550 61 0 0.0 2.0 0.00 0.09 0.09 82 1024.7
20260901004017 61 0 1.0 2.0 0.00 0.09 0.09 82 1024.7
20260901003521 61 110 1.0 2.0 0.00 0.09 0.09 81 1024.6
20260901003036 61 107 0.0 2.0 0.00 0.09 0.09 82 1024.7
20260901002520 61 0 0.0 1.0 0.00 0.09 0.09 81 1024.8
20260901002022 61 100 0.0 1.0 0.00 0.09 0.09 81 1024.8
20260901001539 61 58 0.0 1.0 0.00 0.09 0.09 81 1024.8
20260901001022 61 0 0.0 0.0 0.00 0.09 0.09 80 1024.9
20260901000518 61 0 0.0 1.0 0.00 0.09 0.09 81 1024.9
20260901000051 61 0 0.0 4.0 0.00 0.09 0.09 81 1024.9
20260831235519 61 0 0.0 5.0 0.00 0.09 0.09 82 1024.7
20260831235016 61 49 3.0 6.0 0.00 0.09 0.09 82 1024.7
20260831234539 61 83 3.0 6.0 0.00 0.09 0.09 81 1024.7
20260831234018 61 86 4.0 7.0 0.00 0.09 0.09 82 1024.8
20260831233521 61 76 5.0 7.0 0.00 0.09 0.09 81 1024.8
20260831233039 61 77 4.0 6.0 0.00 0.09 0.09 81 1025.0
20260831232520 61 70 4.0 6.0 0.00 0.09 0.09 81 1025.0
20260831232017 61 71 3.0 4.0 0.00 0.09 0.09 81 1025.1
20260831231546 61 74 0.0 4.0 0.00 0.09 0.09 80 1025.0
20260831231020 61 0 2.0 4.0 0.00 0.09 0.09 79 1025.0
20260831230519 61 62 0.0 3.0 0.00 0.09 0.09 80 1025.1
20260831230039 61 131 1.0 4.0 0.00 0.09 0.09 82 1024.9
20260831225521 61 135 1.0 6.0 0.00 0.09 0.09 81 1025.0
20260831225018 61 91 3.0 6.0 0.00 0.09 0.09 81 1025.0
20260831224539 61 99 4.0 7.0 0.00 0.09 0.09 82 1025.0
20260831224018 60 96 3.0 7.0 0.00 0.09 0.09 84 1025.1
20260831223520 60 131 4.0 7.0 0.00 0.09 0.09 84 1025.1
20260831223040 59 80 3.0 7.0 0.00 0.09 0.09 85 1025.0
20260831222522 59 122 5.0 9.0 0.01 0.09 0.09 86 1025.2
20260831222020 58 114 7.0 9.0 0.01 0.09 0.09 86 1025.1
20260831221535 58 112 4.0 7.0 0.01 0.09 0.09 88 1025.2
20260831221017 58 146 4.0 8.0 0.01 0.09 0.09 87 1025.3
20260831220517 58 141 6.0 8.0 0.01 0.09 0.09 87 1025.4
20260831220038 58 114 4.0 7.0 0.01 0.09 0.09 88 1025.4
20260831215517 58 124 5.0 7.0 0.01 0.09 0.09 87 1025.6
20260831215018 58 118 2.0 7.0 0.01 0.09 0.09 89 1025.7
20260831214539 57 131 5.0 12.0 0.01 0.09 0.09 88 1025.8
20260831214020 57 96 6.0 12.0 0.01 0.09 0.09 89 1025.7
20260831213526 57 64 9.0 12.0 0.01 0.09 0.09 88 1025.1
20260831213036 57 81 8.0 12.0 0.01 0.08 0.08 90 1025.4
20260831212518 57 74 8.0 12.0 0.02 0.08 0.08 91 1025.8
20260831212018 57 124 8.0 10.0 0.03 0.08 0.08 90 1026.1
20260831211535 56 100 5.0 9.0 0.04 0.08 0.08 91 1026.2
20260831211016 56 92 6.0 9.0 0.04 0.08 0.08 91 1026.3
20260831210519 56 95 6.0 9.0 0.05 0.08 0.08 90 1026.4
20260831210037 56 103 5.0 8.0 0.06 0.08 0.08 90 1026.7
20260831205518 56 103 4.0 5.0 0.06 0.08 0.08 90 1026.9
20260831205021 56 103 3.0 6.0 0.06 0.08 0.08 90 1027.0
20260831204537 56 96 2.0 6.0 0.06 0.08 0.08 90 1027.2
20260831204020 56 70 3.0 5.0 0.06 0.08 0.08 90 1027.1
20260831203520 56 65 3.0 4.0 0.07 0.08 0.08 89 1027.3
20260831203036 56 39 3.0 4.0 0.06 0.07 0.07 87 1027.2
20260831202521 56 21 2.0 4.0 0.05 0.06 0.06 87 1027.4
20260831202017 56 357 2.0 4.0 0.04 0.05 0.05 87 1027.6
20260831201536 57 0 0.0 3.0 0.03 0.04 0.04 88 1027.7
20260831201018 57 312 1.0 3.0 0.02 0.03 0.03 87 1027.8
20260831200518 57 330 0.0 4.0 0.02 0.03 0.03 89 1027.9
20260831200037 57 329 2.0 6.0 0.01 0.02 0.02 88 1027.9
20260831195517 57 321 1.0 6.0 0.01 0.02 0.02 88 1027.8
20260831195018 57 288 4.0 7.0 0.01 0.02 0.02 88 1027.9
20260831194607 57 270 4.0 8.0 0.01 0.02 0.02 89 1027.9
20260831194020 57 310 3.0 8.0 0.01 0.02 0.02 88 1027.9
20260831193523 57 312 6.0 8.0 0.00 0.01 0.01 87 1027.9
20260831193037 58 311 5.0 8.0 0.00 0.01 0.01 88 1027.8
20260831192520 58 311 3.0 8.0 0.01 0.01 0.01 89 1027.9
20260831192019 57 293 5.0 8.0 0.01 0.01 0.01 87 1028.0
20260831191535 57 278 5.0 10.0 0.01 0.01 0.01 87 1028.0
20260831191018 58 299 5.0 10.0 0.01 0.01 0.01 87 1028.1
20260831190518 57 293 7.0 10.0 0.01 0.01 0.01 86 1028.0
20260831190041 57 290 8.0 10.0 0.01 0.01 0.01 87 1028.0
20260831185519 58 287 8.0 12.0 0.01 0.01 0.01 88 1028.0
20260831185018 58 271 6.0 12.0 0.01 0.01 0.01 88 1028.1
20260831184539 58 282 8.0 11.0 0.01 0.01 0.01 87 1028.2
20260831184019 58 281 7.0 11.0 0.01 0.01 0.01 86 1028.2
20260831183522 59 267 7.0 13.0 0.01 0.01 0.01 84 1028.2
20260831183039 59 279 9.0 14.0 0.01 0.01 0.01 82 1028.2
20260831182520 60 259 8.0 18.0 0.00 0.00 0.00 79 1028.2
20260831182020 61 255 11.0 18.0 0.00 0.00 0.00 76 1028.1
20260831181544 62 255 11.0 16.0 0.00 0.00 0.00 72 1028.2
20260831181019 62 285 11.0 15.0 0.00 0.00 0.00 69 1028.0
20260831180517 62 274 10.0 15.0 0.00 0.00 0.00 69 1028.0
20260831180043 63 284 10.0 15.0 0.00 0.00 0.00 68 1027.9
20260831175518 64 293 10.0 14.0 0.00 0.00 0.00 66 1027.8
20260831175019 64 297 6.0 13.0 0.00 0.00 0.00 66 1027.8
20260831174537 65 293 8.0 14.0 0.00 0.00 0.00 64 1027.8
20260831174023 65 257 9.0 14.0 0.00 0.00 0.00 62 1027.6
20260831173517 65 278 10.0 15.0 0.00 0.00 0.00 62 1027.7
20260831173040 65 286 11.0 15.0 0.00 0.00 0.00 62 1027.6
20260831172520 65 278 10.0 15.0 0.00 0.00 0.00 63 1027.6
20260831172021 64 299 10.0 16.0 0.00 0.00 0.00 63 1027.6
20260831171542 65 274 11.0 17.0 0.00 0.00 0.00 61 1027.4
20260831171021 65 283 11.0 17.0 0.00 0.00 0.00 61 1027.4
20260831170520 65 287 10.0 16.0 0.00 0.00 0.00 63 1027.4
20260831170038 65 309 11.0 16.0 0.00 0.00 0.00 62 1027.4
20260831165522 67 288 11.0 18.0 0.00 0.00 0.00 58 1027.3
20260831165021 67 268 11.0 18.0 0.00 0.00 0.00 57 1027.2
20260831164541 68 290 11.0 16.0 0.00 0.00 0.00 55 1027.2
20260831164019 68 263 10.0 14.0 0.00 0.00 0.00 55 1027.1
20260831163520 67 288 7.0 13.0 0.00 0.00 0.00 57 1027.0
20260831163040 66 241 8.0 13.0 0.00 0.00 0.00 57 1026.9
20260831162524 66 240 7.0 14.0 0.00 0.00 0.00 58 1026.8
20260831162018 66 273 8.0 14.0 0.00 0.00 0.00 58 1026.7
20260831161541 66 259 10.0 14.0 0.00 0.00 0.00 58 1026.6
20260831161021 65 254 9.0 13.0 0.00 0.00 0.00 59 1026.6
20260831160520 65 307 10.0 13.0 0.00 0.00 0.00 58 1026.4
20260831160039 65 294 8.0 11.0 0.00 0.00 0.00 60 1026.5
20260831155522 64 281 8.0 11.0 0.00 0.00 0.00 62 1026.3
20260831155023 65 292 7.0 9.0 0.00 0.00 0.00 61 1026.3
20260831154637 64 271 5.0 8.0 0.00 0.00 0.00 62 1026.3
20260831154020 64 271 6.0 8.0 0.00 0.00 0.00 63 1026.2
20260831153523 64 248 5.0 6.0 0.00 0.00 0.00 61 1026.0
20260831153040 64 285 3.0 5.0 0.00 0.00 0.00 63 1026.0
20260831152517 63 294 3.0 5.0 0.00 0.00 0.00 64 1026.0